Temperature
29 26 25 26 26 27 27 27 27 27 28 27 25 25 25 25 25 24 24 23 23 23 23 22 22 21 21 21 20 20 20 20 20 19 19 19 19 19 19 18 18 18 18 18
26 26 27 28 28 28 28 27 27 28 28 27 25 25 25 25 25 25 24 23 23 23 23 22 22 22 21 21 21 21 20 20 20 20 19 19 19 19 19 18 18 18 18 18
26 27 29 29 29 28 28 27 27 27 27 26 26 25 24 25 25 25 25 24 24 23 23 22 22 22 22 21 21 21 21 20 20 20 19 19 19 19 19 19 18 18 18 18
27 28 29 29 29 29 27 29 29 28 26 24 25 23 24 24 24 24 25 24 24 24 23 23 23 22 22 22 22 21 21 20 20 20 19 19 19 19 19 19 18 18 18 18
27 29 29 29 29 29 28 29 29 27 25 24 24 23 23 24 24 24 25 25 24 24 24 24 23 23 23 22 22 22 21 21 20 20 20 19 19 19 19 18 18 18 18 18
27 29 29 29 30 30 29 28 26 23 22 23 24 24 24 23 24 25 25 25 25 24 24 24 24 23 23 23 22 22 21 21 21 20 20 19 19 19 18 18 18 18 18 18
27 28 29 30 29 29 27 24 23 24 22 23 23 24 23 25 26 26 26 26 26 25 24 24 24 23 23 23 22 22 22 21 21 20 20 20 19 19 19 18 18 18 18 18
25 25 28 29 29 27 27 24 23 24 23 23 24 24 24 26 27 27 27 27 26 25 25 24 24 24 23 23 23 22 22 22 21 20 20 20 19 19 19 18 18 18 18 18
25 25 28 30 30 28 27 24 23 22 23 23 23 24 25 26 26 26 26 26 26 26 25 25 24 24 24 24 23 23 23 22 21 21 20 20 20 19 19 19 18 18 18 18
25 25 27 29 30 29 27 25 22 22 22 23 24 24 24 25 25 25 25 26 26 26 25 25 25 24 24 24 24 23 23 22 22 21 21 20 20 19 19 19 18 18 18 18
24 24 25 27 28 28 27 26 22 20 21 22 23 23 25 24 25 24 25 26 26 26 26 25 25 25 24 24 23 23 23 22 22 21 21 20 20 19 19 19 18 18 18 18
23 21 23 25 26 28 27 26 22 22 22 20 21 23 26 25 25 25 26 26 26 26 26 26 25 25 24 24 23 23 23 22 22 21 21 20 20 19 19 19 19 18 18 18
23 21 22 23 24 26 27 26 23 21 20 20 22 24 25 25 25 26 26 26 26 26 25 25 25 24 24 24 23 23 22 22 22 21 20 20 20 19 19 19 19 18 18 18
23 20 21 23 23 24 26 26 25 22 21 22 23 24 25 24 24 25 26 26 26 25 25 25 25 24 24 24 23 23 22 22 21 21 20 20 20 19 19 19 19 18 18 18
22 21 22 23 24 26 26 26 26 25 23 23 24 24 24 24 25 25 26 26 25 25 25 25 24 24 24 23 23 23 22 22 21 21 20 20 20 19 19 19 18 18 18 17
19 21 22 23 25 25 26 26 26 26 25 25 25 24 24 25 26 25 25 25 24 24 25 25 24 24 24 24 23 23 22 22 21 21 20 20 19 19 19 19 18 18 18 17
18 19 20 21 23 25 24 25 26 26 26 25 25 24 24 24 24 25 25 25 25 25 25 25 25 24 24 24 23 23 22 22 21 21 20 20 19 19 19 18 18 18 17 17
18 17 17 19 22 23 23 24 26 26 25 25 24 24 24 24 26 26 26 26 25 25 25 25 25 25 24 24 23 23 22 22 21 21 20 20 19 19 19 18 18 18 17 17
17 18 17 17 20 21 23 25 26 25 24 24 24 24 25 25 25 25 26 26 26 26 26 25 25 25 24 24 23 23 22 22 21 21 20 20 20 19 19 18 18 18 17 17
17 17 17 17 20 21 22 24 26 24 23 23 23 23 24 24 21 22 25 25 25 25 25 25 24 24 24 23 23 22 22 22 21 21 20 20 20 19 19 18 18 18 17 17
18 17 17 18 19 20 22 24 25 23 22 24 24 24 24 23 23 25 25 25 25 25 25 24 24 23 23 23 23 22 22 22 21 21 20 20 19 19 19 18 18 17 17 17
17 17 17 17 18 20 22 23 22 21 23 24 24 24 24 25 25 25 25 25 25 24 24 24 23 23 23 22 22 22 22 22 21 20 20 20 19 19 18 18 17 17 17 17
17 17 16 17 18 20 22 23 23 23 23 24 24 24 24 24 24 24 24 24 24 24 23 23 23 22 22 22 22 22 21 21 20 20 20 19 19 18 18 18 17 17 17 16
17 17 16 17 19 20 22 23 23 23 23 24 24 24 24 24 24 23 23 23 23 23 23 22 22 22 21 21 21 21 21 20 20 20 19 19 18 18 18 17 17 17 17 16
16 16 16 17 18 20 21 22 22 23 23 23 23 23 23 23 23 23 23 23 22 22 22 22 22 21 21 21 20 20 20 20 19 19 19 18 18 18 17 17 17 17 17 16
15 16 16 16 17 17 19 21 22 22 22 22 23 23 23 23 22 22 22 22 22 21 21 21 21 21 20 20 20 20 19 19 19 19 18 18 18 17 17 17 17 16 16 16
Wind_Speed
2 3 4 7 7 7 6 4 4 5 6 7 8 9 14 13 12 13 12 13 13 12 11 11 11 11 10 8 8 7 6 5 4 3 2 2 1 1 1 1 3 3 3 3
4 4 9 8 6 4 4 3 3 2 4 5 7 7 11 13 15 16 16 15 14 12 10 11 11 11 11 10 9 8 7 6 5 4 3 3 2 1 1 1 1 2 3 4
8 8 5 3 4 4 4 6 5 4 3 5 6 1 5 8 8 10 13 14 14 16 16 14 13 12 11 11 10 10 8 7 6 5 3 2 1 1 1 1 0 1 2 3
6 7 5 5 5 5 5 6 6 6 5 2 5 3 6 8 8 11 13 13 15 15 14 14 14 13 13 12 11 9 9 7 6 5 4 4 3 2 2 2 1 1 1 2
6 5 5 6 6 6 6 3 3 4 5 1 1 4 6 4 9 13 15 17 17 16 17 16 16 15 13 12 11 10 9 7 6 5 5 5 3 3 2 1 1 1 1 1
7 5 5 6 5 5 4 5 6 6 5 1 4 4 5 7 13 14 15 16 17 17 17 16 14 12 11 11 10 10 9 8 7 6 6 5 5 4 2 1 1 1 1 1
6 7 4 3 2 1 6 7 4 5 4 4 3 3 8 10 12 16 17 16 16 16 16 15 14 13 12 12 12 11 10 9 8 7 6 5 5 5 4 3 3 2 1 1
4 7 6 4 7 6 5 10 8 5 4 4 2 3 8 7 8 10 11 13 14 14 14 15 15 14 14 14 13 11 11 9 8 7 6 5 5 4 3 3 3 2 2 2
6 7 6 5 5 8 5 4 9 7 3 1 3 4 7 2 4 6 8 11 13 15 15 15 15 14 13 12 12 12 12 9 9 8 7 5 5 4 4 3 3 2 2 1
6 4 6 4 1 0 8 8 7 6 5 2 3 3 4 4 6 7 9 10 11 13 13 14 13 13 12 12 11 11 11 10 9 9 8 7 5 5 4 4 3 2 2 1
5 4 5 2 4 5 3 5 6 5 7 7 3 7 7 9 10 12 11 11 12 13 12 12 12 12 11 10 10 10 10 9 9 9 7 6 5 5 5 4 4 3 2 3
4 5 3 7 6 6 6 7 8 6 4 6 6 7 6 9 10 12 11 10 11 11 10 10 10 10 10 11 11 10 10 10 10 9 8 7 6 6 5 5 4 4 3 3
4 6 1 6 6 3 1 3 6 7 5 5 5 6 3 3 6 9 11 11 11 11 10 8 8 9 11 11 10 10 10 10 9 9 8 7 7 7 6 6 5 4 4 3
6 5 7 8 7 4 3 3 3 7 5 5 7 6 3 4 7 7 9 11 11 11 11 10 9 10 10 10 10 10 9 9 10 9 9 8 8 8 7 6 5 5 5 4
5 4 4 5 4 1 3 5 3 4 8 8 8 8 8 9 10 10 11 11 11 10 11 12 11 10 10 9 9 9 9 9 10 10 10 9 8 7 7 6 6 5 5 5
4 4 2 2 2 2 3 4 5 5 5 6 6 4 5 5 7 7 10 12 11 11 12 12 11 11 10 10 10 9 9 9 10 10 10 9 8 7 7 7 6 5 5 4
2 4 3 2 4 3 4 5 3 3 3 7 7 8 5 5 8 10 10 11 11 12 11 12 12 12 11 11 10 10 9 9 9 9 9 8 8 8 8 8 7 6 6 5
4 4 4 2 2 5 10 5 2 2 2 4 6 7 11 11 10 9 9 11 10 11 12 11 11 10 9 9 9 9 9 9 9 9 8 8 8 8 7 7 7 6 5 5
7 7 4 3 2 5 8 5 1 2 3 1 5 6 7 7 6 2 4 8 10 11 11 10 11 10 10 10 10 9 9 9 9 9 8 8 9 9 8 8 8 6 6 5
5 7 6 4 3 6 8 8 3 5 2 4 4 7 7 8 5 5 6 7 8 7 7 8 8 8 9 9 10 9 9 9 10 9 9 8 8 9 9 9 7 6 6 6
3 4 4 4 3 6 8 7 3 3 6 4 3 6 7 6 7 7 7 8 9 9 8 9 9 9 9 9 10 9 8 9 9 8 7 7 8 8 8 7 6 6 6 6
6 5 4 5 4 7 6 2 2 6 4 2 3 4 6 5 4 4 6 8 9 9 8 9 9 7 7 9 10 9 8 8 7 7 7 7 7 7 7 6 6 6 7 6
5 8 6 7 7 7 3 2 3 3 1 1 3 3 5 5 4 4 5 7 8 9 9 8 9 7 5 7 9 9 7 6 7 7 7 7 7 6 6 7 7 6 6 6
4 1 3 1 3 3 1 1 1 2 2 1 3 4 6 5 4 4 5 6 6 6 7 7 8 8 6 6 7 7 6 7 8 7 7 6 6 6 5 5 6 6 6 6
3 2 2 1 1 3 6 5 3 2 3 3 4 4 5 6 5 5 5 5 5 5 5 7 8 8 7 6 5 6 6 7 7 7 6 6 6 6 6 5 6 7 7 7
2 2 3 4 4 2 5 5 3 2 2 3 5 4 4 5 5 5 5 5 5 5 5 5 6 6 6 6 5 4 5 7 8 7 7 6 6 6 6 5 4 5 6 8
Wind_Direction
322 83 214 216 203 195 185 173 189 207 180 145 153 166 176 179 177 178 178 178 180 183 182 174 172 168 165 163 160 164 160 170 158 149 148 150 174 205 215 196 189 191 190 172
9 254 230 210 211 192 190 181 204 176 162 143 150 175 183 184 188 185 183 184 184 180 176 178 175 172 172 172 168 167 170 171 171 173 175 171 172 198 202 187 182 197 189 180
207 235 238 209 214 199 222 199 195 169 97 74 114 123 203 204 194 193 191 187 185 183 181 181 180 180 175 176 176 177 179 175 176 170 148 132 88 32 22 18 272 249 197 188
237 236 215 211 208 186 244 224 179 147 115 186 145 183 243 203 200 203 199 192 191 188 184 183 183 181 182 183 179 175 177 177 178 170 160 158 166 185 215 209 202 229 212 199
248 219 198 208 212 188 214 212 146 133 129 97 46 128 268 185 206 214 204 199 195 190 186 187 187 186 184 181 177 177 175 180 180 174 172 169 177 191 199 182 170 212 283 257
245 247 203 207 209 188 149 62 40 54 78 85 234 153 244 207 205 208 203 199 194 190 189 189 188 180 180 179 178 177 176 183 184 181 178 175 178 177 162 175 188 213 267 294
292 284 264 198 183 336 100 96 37 7 15 252 234 162 237 224 205 198 194 193 192 189 186 184 182 181 181 180 182 181 178 185 185 181 181 178 177 173 177 186 196 188 197 258
221 269 251 206 177 181 167 140 155 179 210 280 319 224 254 244 205 188 184 182 181 182 183 183 184 183 184 185 183 180 180 184 182 179 182 181 177 174 179 178 176 183 193 205
190 246 266 223 185 152 150 155 163 139 150 104 283 290 312 310 130 145 159 169 181 183 183 183 183 183 182 182 183 180 179 179 177 179 178 180 179 174 175 169 165 177 192 166
166 227 271 250 101 117 158 153 104 121 145 194 282 263 227 229 165 160 158 168 179 177 180 182 181 180 181 180 179 175 177 178 178 179 183 184 181 176 170 160 157 156 162 141
148 168 288 332 184 199 134 113 113 125 148 149 207 264 221 197 185 174 177 177 173 172 175 176 179 175 173 172 172 175 177 172 173 177 178 176 175 173 167 165 166 157 145 140
159 136 237 255 248 194 162 162 144 148 199 161 164 257 250 194 184 174 176 176 173 171 172 170 168 163 165 170 171 175 176 175 177 175 172 174 169 166 168 171 168 156 149 147
137 118 112 331 330 348 132 169 144 133 129 150 162 254 305 156 163 174 168 170 167 163 163 160 155 157 165 169 170 173 175 175 172 167 167 172 171 171 177 177 172 162 156 153
130 116 161 195 217 228 257 264 155 127 150 187 202 220 269 176 161 165 165 166 163 162 164 163 160 163 165 169 171 172 176 174 170 168 171 180 183 181 180 173 170 168 162 156
110 142 175 214 229 208 246 247 221 190 183 177 205 196 215 200 179 171 163 157 158 161 163 167 169 166 165 165 167 171 171 169 168 170 177 186 185 179 172 170 172 168 165 165
72 138 129 314 307 359 311 272 229 219 196 176 163 208 229 182 147 147 156 156 165 169 170 169 168 168 171 169 167 168 168 167 165 172 183 183 176 173 173 174 170 164 165 164
62 105 109 256 302 13 283 251 231 238 213 168 184 209 171 147 153 159 159 160 169 174 172 172 174 176 177 175 169 170 169 162 165 174 178 177 174 175 179 177 171 173 174 168
134 103 121 130 65 228 243 253 217 210 250 180 176 177 165 173 173 167 157 159 168 176 176 176 174 173 172 168 165 165 160 162 169 176 180 178 176 179 178 175 178 182 178 179
144 132 116 120 170 267 293 293 181 147 295 225 162 161 162 149 111 110 177 163 174 177 175 175 174 168 163 162 162 159 163 165 171 179 183 183 179 181 180 183 185 186 180 186
92 110 118 126 156 223 253 282 307 96 305 299 147 150 147 122 130 220 206 166 157 151 154 157 155 150 157 164 160 156 167 172 183 189 188 182 179 182 187 191 190 186 183 192
80 81 129 150 195 251 262 289 21 133 227 260 157 147 140 155 187 202 176 158 152 146 148 149 149 156 167 164 157 163 171 187 194 188 182 182 184 188 189 189 188 180 180 184
166 154 170 151 181 245 283 22 149 212 237 216 156 148 142 148 150 146 149 153 146 139 142 146 148 157 162 160 160 169 187 195 181 174 177 184 187 190 188 182 187 185 182 188
183 183 179 183 209 234 260 179 200 178 168 204 155 136 124 123 132 136 146 152 151 149 149 147 144 145 153 164 167 180 194 179 171 174 182 188 186 186 182 185 191 190 191 199
306 76 124 162 246 250 306 54 47 85 113 160 143 135 126 130 147 148 147 151 150 151 152 149 146 153 167 174 174 184 186 174 173 183 190 186 185 185 187 192 194 197 200 206
279 358 90 159 276 353 351 350 345 36 59 75 90 105 121 128 133 143 144 146 150 154 154 157 160 168 178 176 181 186 179 171 179 187 190 189 188 187 192 197 202 204 210 208
262 181 165 213 231 208 272 295 345 42 60 99 100 86 98 118 127 130 144 150 146 152 152 156 163 169 178 177 184 192 183 178 180 187 192 195 196 196 196 193 209 227 220 223
Height
1500 1508 1515 1512 1510 1512 1514 1519 1524 1519 1513 1518 1525 1527 1528 1530 1533 1535 1537 1539 1540 1541 1544 1546 1547 1549 1550 1552 1553 1554 1555 1556 1557 1557 1558 1558 1559 1559 1559 1559 1559 1559 1558 1558
1507 1510 1501 1501 1503 1507 1512 1519 1521 1517 1513 1518 1526 1528 1526 1527 1529 1531 1533 1536 1537 1540 1542 1544 1546 1547 1549 1550 1551 1553 1554 1555 1556 1556 1557 1557 1558 1558 1559 1558 1558 1558 1558 1557
1509 1503 1495 1499 1504 1510 1512 1517 1518 1520 1518 1520 1528 1536 1532 1528 1529 1531 1532 1533 1535 1537 1539 1541 1543 1545 1547 1548 1550 1551 1552 1554 1555 1555 1556 1557 1557 1557 1558 1557 1557 1557 1557 1557
1501 1495 1495 1499 1503 1506 1516 1505 1508 1514 1527 1538 1533 1554 1536 1529 1529 1529 1530 1531 1533 1535 1536 1538 1540 1542 1544 1546 1548 1550 1551 1552 1553 1554 1555 1555 1555 1556 1556 1556 1556 1556 1556 1556
1501 1493 1496 1500 1499 1498 1505 1500 1505 1513 1527 1538 1535 1548 1542 1528 1530 1526 1525 1527 1528 1531 1533 1535 1537 1539 1542 1544 1546 1548 1550 1551 1552 1553 1553 1554 1554 1555 1555 1555 1555 1555 1555 1555
1493 1489 1490 1492 1491 1492 1496 1503 1511 1522 1534 1551 1539 1545 1543 1529 1521 1517 1518 1521 1524 1527 1530 1532 1535 1538 1540 1543 1545 1546 1548 1549 1550 1551 1552 1553 1553 1554 1554 1554 1554 1554 1554 1553
1498 1491 1486 1486 1493 1495 1500 1523 1546 1550 1558 1554 1535 1538 1535 1511 1506 1507 1511 1515 1519 1523 1526 1530 1533 1535 1538 1540 1542 1544 1545 1547 1548 1550 1550 1551 1552 1552 1552 1553 1553 1552 1552 1551
1511 1510 1489 1484 1490 1499 1503 1518 1546 1559 1562 1553 1536 1538 1522 1503 1500 1502 1506 1511 1515 1520 1524 1527 1530 1532 1535 1537 1540 1542 1543 1545 1547 1548 1549 1549 1550 1551 1551 1551 1551 1551 1551 1550
1508 1507 1484 1481 1481 1488 1502 1514 1517 1538 1545 1553 1545 1531 1514 1502 1502 1504 1507 1510 1513 1516 1520 1523 1527 1530 1533 1535 1537 1539 1541 1543 1544 1546 1547 1548 1549 1549 1549 1550 1550 1550 1550 1549
1493 1503 1488 1481 1481 1484 1490 1501 1522 1538 1555 1560 1548 1538 1530 1511 1508 1505 1506 1508 1510 1513 1517 1521 1524 1527 1530 1533 1536 1538 1540 1541 1542 1544 1545 1546 1547 1547 1548 1548 1548 1548 1548 1548
1487 1502 1497 1488 1491 1495 1495 1503 1517 1533 1538 1554 1558 1543 1507 1504 1502 1502 1503 1504 1507 1511 1514 1518 1522 1525 1528 1531 1534 1536 1537 1539 1541 1542 1543 1544 1545 1546 1546 1546 1547 1547 1547 1547
1486 1500 1508 1496 1484 1481 1487 1496 1511 1530 1537 1540 1546 1535 1495 1495 1496 1498 1500 1503 1506 1509 1513 1516 1520 1523 1526 1529 1531 1533 1535 1537 1538 1540 1541 1542 1543 1544 1544 1545 1545 1546 1546 1546
1484 1501 1516 1512 1503 1490 1490 1491 1499 1513 1527 1538 1542 1527 1494 1493 1495 1497 1499 1502 1505 1509 1512 1515 1519 1521 1524 1526 1529 1531 1533 1535 1537 1538 1540 1541 1541 1542 1542 1543 1544 1545 1545 1545
1478 1498 1510 1518 1511 1499 1496 1493 1494 1508 1526 1529 1524 1514 1500 1496 1496 1497 1499 1502 1505 1508 1511 1514 1517 1520 1522 1524 1527 1529 1531 1533 1535 1537 1538 1538 1539 1540 1541 1542 1543 1543 1544 1544
1479 1496 1496 1495 1490 1489 1491 1491 1491 1499 1506 1514 1511 1506 1498 1494 1493 1494 1497 1500 1504 1507 1509 1512 1515 1518 1520 1523 1525 1528 1530 1532 1533 1535 1536 1536 1537 1538 1539 1540 1541 1542 1543 1543
1483 1492 1494 1495 1488 1487 1489 1487 1488 1490 1493 1497 1498 1499 1490 1489 1491 1493 1496 1499 1502 1505 1507 1510 1513 1516 1518 1520 1523 1525 1527 1529 1531 1533 1534 1535 1536 1537 1538 1539 1539 1540 1541 1541
1488 1493 1502 1506 1494 1491 1500 1488 1486 1487 1485 1489 1497 1493 1488 1490 1490 1491 1494 1497 1499 1502 1505 1508 1510 1513 1516 1518 1521 1523 1525 1527 1529 1530 1531 1533 1534 1535 1536 1537 1537 1538 1539 1539
1487 1495 1506 1509 1504 1514 1497 1479 1479 1482 1482 1481 1483 1483 1483 1484 1487 1490 1491 1494 1497 1500 1502 1506 1509 1511 1514 1516 1519 1521 1523 1525 1527 1528 1529 1530 1531 1532 1533 1534 1535 1536 1536 1537
1479 1491 1505 1514 1515 1507 1489 1477 1477 1484 1487 1480 1480 1480 1482 1484 1488 1491 1491 1492 1494 1497 1500 1503 1506 1509 1511 1514 1517 1519 1521 1522 1524 1525 1526 1527 1528 1529 1530 1531 1532 1533 1534 1534
1480 1486 1501 1510 1512 1513 1494 1476 1473 1479 1491 1480 1478 1478 1481 1483 1493 1492 1490 1491 1493 1496 1499 1501 1504 1507 1509 1512 1514 1516 1518 1519 1520 1522 1523 1524 1525 1526 1527 1528 1529 1530 1531 1532
1490 1495 1502 1507 1509 1500 1481 1474 1474 1494 1493 1479 1477 1477 1479 1481 1483 1484 1486 1489 1491 1494 1497 1500 1502 1505 1507 1509 1512 1513 1515 1516 1518 1519 1521 1522 1523 1523 1524 1525 1526 1527 1528 1529
1492 1498 1502 1505 1508 1502 1476 1475 1481 1483 1477 1476 1476 1476 1477 1478 1480 1482 1484 1486 1489 1492 1495 1497 1500 1502 1505 1507 1509 1511 1512 1514 1516 1517 1518 1519 1519 1520 1521 1522 1523 1524 1525 1526
1484 1485 1488 1491 1491 1479 1475 1475 1476 1475 1475 1474 1474 1475 1476 1478 1480 1481 1483 1485 1487 1489 1492 1495 1497 1500 1502 1504 1506 1508 1510 1511 1513 1513 1514 1515 1516 1517 1518 1519 1520 1521 1522 1522
1478 1475 1480 1483 1479 1476 1475 1475 1474 1474 1473 1473 1473 1474 1475 1477 1479 1480 1481 1483 1486 1488 1490 1493 1495 1497 1499 1502 1503 1505 1507 1508 1509 1509 1510 1511 1512 1513 1514 1515 1516 1517 1517 1518
1479 1477 1480 1481 1478 1475 1475 1475 1474 1473 1472 1472 1472 1473 1474 1475 1477 1478 1480 1482 1485 1487 1489 1491 1493 1495 1497 1499 1500 1502 1503 1504 1505 1506 1507 1507 1508 1509 1510 1511 1512 1512 1513 1514
1477 1478 1481 1482 1477 1478 1476 1475 1474 1473 1472 1472 1472 1473 1474 1474 1476 1477 1479 1481 1483 1486 1488 1490 1491 1493 1494 1495 1497 1498 1499 1500 1501 1501 1502 1503 1504 1504 1505 1506 1507 1508 1509 1510